North Adams, MA

7:55 AM EST on February 24, 2017 (GMT -0500)
Harriman And West

Weather History for KAQW - September, 2013

Change the Weather History Date:

Wednesday, September 4, 2013

  Actual Average Record
Temperature  
Mean Temperature 65 °F -  
Max Temperature 75 °F 74 °F 84 °F (1999)
Min Temperature 55 °F 51 °F 43 °F (1997)
Growing Degree Days 15 (Base 50)    
Moisture  
Dew Point 53 °F    
Average Humidity 69    
Maximum Humidity 97    
Minimum Humidity 36    
Precipitation  
Precipitation 0.00 in - - ()
Sea Level Pressure  
Sea Level Pressure 29.92 in    
Wind  
Wind Speed 3 mph (West)    
Max Wind Speed 12 mph    
Max Gust Speed 20 mph    
Visibility 10 miles    
Events      
Averages and records for this station are not official NWS values.
T = Trace of Precipitation, MM = Missing Value Source: NWS Daily Summary

Daily Weather History Graph

Daily Weather History Graph

Search for Another Location

Airport or City:

Trip Planner

Search our weather history database for the weather conditions in past years. The results will help you decide how hot, cold, wet, or windy it might be!

Date:

Astronomy

Sep. 04, 2013 Rise Set
Actual Time 6:20 AM EDT 7:21 PM EDT
Civil Twilight 5:52 AM EDT 7:50 PM EDT
Nautical Twilight 5:17 AM EDT 8:24 PM EDT
Astronomical Twilight 4:41 AM EDT 9:00 PM EDT
Moon 5:30 AM EDT (9/4) 6:39 PM EDT (9/4)
Length of Visible Light 13h 58m
Length of Day
13h 00m
Waning Crescent, 1% of the Moon is Illuminated
Sep 4
Waning Crescent
Sep 5
New
Sep 12
First Quarter
Sep 19
Full
Sep 26
Last Quarter

Hourly Weather History & Observations

Time (EDT) Temp. Dew Point Humidity Pressure Visibility Wind Dir Wind Speed Gust Speed Precip Events Conditions
12:52 AM 62.1 °F 54.0 °F 75% 29.87 in 10.0 mi Calm Calm - N/A   Overcast
1:52 AM 62.1 °F 55.0 °F 78% 29.86 in 10.0 mi Calm Calm - N/A   Overcast
2:44 AM 62.6 °F 55.4 °F 77% 29.87 in 10.0 mi West 5.8 mph - N/A   Overcast
2:52 AM 63.0 °F 55.0 °F 75% 29.86 in 10.0 mi Calm Calm - N/A   Overcast
3:52 AM 62.1 °F 57.0 °F 84% 29.88 in 10.0 mi West 3.5 mph - N/A   Overcast
4:44 AM 62.6 °F 57.2 °F 82% 29.89 in 10.0 mi West 3.5 mph - N/A   Overcast
4:52 AM 61.0 °F 57.0 °F 87% 29.90 in 10.0 mi Calm Calm - N/A   Overcast
5:52 AM 61.0 °F 55.0 °F 81% 29.91 in 10.0 mi West 6.9 mph - N/A   Mostly Cloudy
6:52 AM 59.0 °F 55.0 °F 87% 29.93 in 10.0 mi West 6.9 mph - N/A   Clear
7:52 AM 63.0 °F 55.0 °F 75% 29.94 in 10.0 mi West 4.6 mph - N/A   Clear
8:52 AM 64.9 °F 53.1 °F 65% 29.95 in 10.0 mi Variable 5.8 mph - N/A   Partly Cloudy
9:52 AM 66.9 °F 51.1 °F 57% 29.95 in 10.0 mi Variable 5.8 mph - N/A   Partly Cloudy
10:52 AM 68.0 °F 51.1 °F 55% 29.95 in 10.0 mi West 8.1 mph - N/A   Clear
11:52 AM 71.1 °F 51.1 °F 49% 29.94 in 10.0 mi West 9.2 mph - N/A   Clear
12:52 PM 73.0 °F 52.0 °F 48% 29.93 in 10.0 mi West 11.5 mph 19.6 mph N/A   Clear
1:52 PM 73.9 °F 50.0 °F 43% 29.92 in 10.0 mi Variable 6.9 mph 19.6 mph N/A   Clear
2:52 PM 75.0 °F 50.0 °F 41% 29.92 in 10.0 mi Variable 5.8 mph 17.3 mph N/A   Clear
3:52 PM 75.0 °F 46.0 °F 36% 29.91 in 10.0 mi Variable 5.8 mph 19.6 mph N/A   Clear
4:52 PM 73.9 °F 50.0 °F 43% 29.91 in 10.0 mi West 6.9 mph - N/A   Clear
5:52 PM 73.0 °F 50.0 °F 44% 29.91 in 10.0 mi Variable 3.5 mph - N/A   Clear
6:52 PM 69.1 °F 52.0 °F 54% 29.92 in 10.0 mi Calm Calm - N/A   Clear
7:52 PM 61.0 °F 57.0 °F 87% 29.94 in 10.0 mi Calm Calm - N/A   Clear
8:52 PM 59.0 °F 55.9 °F 90% 29.95 in 10.0 mi Calm Calm - N/A   Clear
9:52 PM 57.0 °F 55.0 °F 93% 29.96 in 10.0 mi Calm Calm - N/A   Clear
10:52 PM 55.9 °F 55.0 °F 97% 29.95 in 10.0 mi Calm Calm - N/A   Mostly Cloudy
11:52 PM 55.0 °F 53.1 °F 93% 29.95 in 10.0 mi Calm Calm - N/A   Partly Cloudy